CST,Max TemperatureF,Mean TemperatureF,Min TemperatureF,Max Dew PointF,MeanDew PointF,Min DewpointF,Max Humidity, Mean Humidity, Min Humidity, Max Sea Level PressureIn, Mean Sea Level PressureIn, Min Sea Level PressureIn, Max VisibilityMiles, Mean VisibilityMiles, Min VisibilityMiles, Max Wind SpeedMPH, Mean Wind SpeedMPH, Max Gust SpeedMPH,PrecipitationIn, CloudCover, Events, WindDirDegrees
2012-12-1,73,58,41,57,49,35,90,70,38,29.92,29.84,29.76,10,9,8,22,13,30,0.00,1,,188
2012-12-2,70,52,33,57,40,32,100,74,36,30.04,29.95,29.81,10,7,0,15,3,28,0.00,1,Fog,114
2012-12-3,75,65,55,58,50,35,78,57,33,30.03,29.81,29.73,10,10,10,22,14,34,0.08,1,,210
2012-12-4,66,52,37,38,27,17,73,47,16,30.32,30.24,30.06,10,10,10,15,8,20,0.00,0,,8
2012-12-5,63,46,28,33,23,11,81,45,13,30.33,30.18,29.97,10,10,9,15,5,18,0.00,0,Snow,153
2012-12-6,62,54,46,46,43,31,87,71,50,29.95,29.86,29.78,10,10,8,18,13,25,0.00,4,,134
2012-12-7,53,50,46,47,45,41,93,84,74,29.92,29.87,29.81,10,6,2,12,6,,0.00,8,,5
2012-12-8,48,42,35,45,41,34,93,85,74,29.97,29.88,29.81,7,5,2,10,7,,0.00,7,,70
2012-12-9,48,38,27,45,31,8,93,69,35,30.17,29.93,29.80,10,7,3,24,11,32,0.00,7,,358
2012-12-10,34,25,16,10,5,0,55,42,24,30.23,30.15,30.09,10,10,10,18,11,26,0.00,1,,313
2012-12-11,48,36,23,14,10,3,53,39,23,30.18,30.13,30.09,10,10,10,8,4,,0.00,0,,196
2012-12-12,54,42,30,15,13,10,50,34,19,30.24,30.15,30.09,10,10,10,18,9,26,0.00,0,,173
2012-12-13,63,51,39,27,22,16,47,34,21,30.15,30.09,30.04,10,10,10,17,13,28,0.00,0,,173
2012-12-14,57,52,46,46,35,23,93,58,36,30.05,29.87,29.61,10,9,4,24,15,32,0.13,6,Rain-Thunderstorm,157
2012-12-15,63,54,41,46,38,35,86,59,43,29.73,29.67,29.55,10,10,10,16,11,31,0.00,0,,217
2012-12-16,50,40,30,39,35,29,96,76,61,29.79,29.72,29.66,10,9,6,15,5,18,0.00,2,,325
2012-12-17,55,42,28,34,31,27,93,73,33,29.86,29.80,29.72,10,6,2,13,6,,0.00,2,,237
2012-12-18,63,50,36,33,27,19,76,54,18,29.82,29.75,29.68,10,10,10,15,6,18,0.00,0,,94
2012-12-19,64,54,41,55,41,30,79,68,52,29.76,29.57,29.42,10,10,9,22,10,37,0.00,3,,127
2012-12-20,43,34,23,30,19,9,87,60,26,30.36,30.07,29.69,10,8,1,36,21,46,0.00,3,Rain-Snow,313
2012-12-21,59,37,15,16,12,8,80,43,13,30.37,30.28,30.19,10,10,10,7,2,,0.00,0,,156
2012-12-22,63,48,33,14,10,7,40,25,11,30.17,30.04,29.91,10,10,10,16,7,23,0.00,0,,178
2012-12-23,45,34,23,25,21,15,85,64,46,30.04,29.93,29.87,10,8,4,14,6,,0.00,0,,359
2012-12-24,39,28,18,19,16,13,85,65,41,30.12,30.04,30.00,10,8,5,20,9,25,0.00,0,,19
2012-12-25,28,24,17,16,12,6,72,62,55,30.30,30.12,29.98,10,10,5,31,20,38,0.00,6,Snow,27
2012-12-26,30,20,10,10,6,5,77,56,33,30.34,30.24,30.14,10,10,10,14,8,17,0.00,0,,13
2012-12-27,39,31,23,25,20,12,79,68,50,30.12,29.98,29.89,10,10,9,23,9,29,0.00,2,,158
2012-12-28,35,27,18,25,16,8,82,60,38,30.21,30.06,29.97,10,10,8,15,6,24,0.00,4,,329
2012-12-29,44,27,10,17,12,4,77,55,32,30.42,30.34,30.23,10,10,10,7,5,,0.00,0,,264
2012-12-30,48,38,27,22,19,13,75,51,26,30.37,30.27,30.16,10,10,10,22,8,31,0.00,0,,170
2012-12-31,37,35,33,36,33,22,100,88,57,30.14,30.04,29.94,10,5,1,12,6,,0.11,8,Rain-Snow,125